Weather WX

World > North America > United States > Mississippi

Cassels, Mississippi Regional Weather

Lat: 31.25N, Lon: 91.03W
Wx Zone: MSZ069
Warning FLW WEATHER ALERT - (More Info. Click Here) Warning
Feedback

Cassels, MS Regional Weather

Expires:201906180400;;660043
ASUS44 KJAN 180310
RWRMS 

MISSISSIPPI HOURLY WEATHER ROUNDUP
NATIONAL WEATHER SERVICE JACKSON MS
1000 PM CDT MON JUN 17 2019

NOTE: "FAIR: INDICATES FEW OR NO CLOUDS BELOW 12,000 FEET WITH NO
SIGNIFICANT WEATHER AND/OR OBSTRUCTIONS TO VISIBILITY.


MSZ059>079-180400-
SOUTH MISSISSIPPI
  
CITY           SKY/WX    TMP DP  RH WIND       PRES   REMARKS
BROOKHAVEN     FAIR      75  73  94 CALM      29.97R                  
HATTIESBURG    FAIR      77  75  93 SE3       29.97R                  
LAUREL         PTCLDY    77  74  91 E7        29.96F                  
MCCOMB         MOCLDY    75  72  90 SE6       29.95R                  
NATCHEZ        MOCLDY    76  73  91 S6        29.94R                  
PINE BELT      FAIR      76  75  97 CALM      29.98S                  
$$


SKY/WX - Weather  TMP - Temperature  DP - Dew Point  RH - Relative Humidity
WIND - Wind Direction/Speed PRES - Barometric Pressure VSB - Visibility
WCI - Wind Chill Index E13G22 Wind - East Wind 13 mph/Gusts of 22 mph